Weather History for Bishop, CA

Change the Weather History Date:

Thursday, August 1, 2013

  Actual Average Record
Temperature  
Mean Temperature 72 °F 77 °F  
Max Temperature 95 °F 99 °F 107 °F (1977)
Min Temperature 48 °F 56 °F 44 °F (1985)
Degree Days  
Heating Degree Days 0 0  
Month to date heating degree days 0 0  
Since 1 June heating degree days 0 20  
Since 1 July heating degree days 0 1  
Cooling Degree Days 7 12  
Month to date cooling degree days 7 12  
Year to date cooling degree days 878 676  
Since 1 June cooling degree days 792 608  
Growing Degree Days 22 (Base 50)    
Moisture  
Dew Point 23 °F    
Average Humidity 28    
Maximum Humidity 50    
Minimum Humidity 5    
Precipitation  
Precipitation 0.00 in 0.01 in 0.10 in (1971)
Month to date precipitation 0.00 0.01  
Year to date precipitation 0.95 3.25  
Snow  
Snow 0.00 in 0.00 in - ()
Month to date snowfall 0.0 0.0  
Since 1 June snowfall 0.0 0.0  
Since 1 July snowfall 0.0 0.0  
Snow Depth 0.00 in    
Sea Level Pressure  
Sea Level Pressure 29.83 in    
Wind  
Wind Speed 5 mph (NNW)    
Max Wind Speed 15 mph    
Max Gust Speed 17 mph    
Visibility 6 miles    
Events      
T = Trace of Precipitation, MM = Missing Value Source: NWS Daily Summary

Daily Weather History Graph

Daily Weather History Graph

Search for Another Location

Airport:

Trip Planner

Search our weather history database for the weather conditions in past years. The results will help you decide how hot, cold, wet, or windy it might be!

Date:

Astronomy

Aug. 01, 2013 Rise Set
Actual Time 5:58 AM PDT 8:00 PM PDT
Civil Twilight 5:29 AM PDT 8:29 PM PDT
Nautical Twilight 4:54 AM PDT 9:04 PM PDT
Astronomical Twilight 4:15 AM PDT 9:42 PM PDT
Moon 1:38 AM PDT (8/1) 4:12 PM PDT (8/1)
Length of Visible Light 15h 00m
Length of Day
14h 02m
Waning Crescent, 22% of the Moon is Illuminated
Aug 1
Waning Crescent
Aug 6
New
Aug 14
First Quarter
Aug 20
Full
Aug 28
Last Quarter

Hourly Weather History & Observations

Time (PDT) Temp. Dew Point Humidity Pressure Visibility Wind Dir Wind Speed Gust Speed Precip Events Conditions
12:56 AM 70.0 °F 30.0 °F 23% 29.86 in 6.0 mi Calm Calm - N/A   Haze
1:56 AM 66.9 °F 30.0 °F 25% 29.85 in 5.0 mi WSW 3.5 mph - N/A   Haze
2:56 AM 63.0 °F 30.9 °F 30% 29.86 in 5.0 mi West 3.5 mph - N/A   Haze
3:56 AM 55.0 °F 30.9 °F 40% 29.88 in 6.0 mi Variable 4.6 mph - N/A   Haze
4:56 AM 53.1 °F 30.9 °F 43% 29.88 in 6.0 mi NNW 5.8 mph - N/A   Haze
5:56 AM 48.9 °F 30.0 °F 48% 29.90 in 5.0 mi North 3.5 mph - N/A   Haze
6:56 AM 55.9 °F 30.9 °F 39% 29.90 in 5.0 mi North 5.8 mph - N/A   Haze
7:56 AM 66.0 °F 30.9 °F 27% 29.90 in 4.0 mi NNE 3.5 mph - N/A   Haze
8:56 AM 73.9 °F 27.0 °F 18% 29.88 in 4.0 mi NNE 4.6 mph - N/A   Haze
9:56 AM 79.0 °F 27.0 °F 15% 29.88 in 4.0 mi Calm Calm - N/A   Haze
10:56 AM 82.9 °F 24.1 °F 12% 29.86 in 4.0 mi Calm Calm - N/A   Haze
11:56 AM 88.0 °F 21.0 °F 9% 29.84 in 5.0 mi SSE 8.1 mph - N/A   Haze
12:56 PM 88.0 °F 16.0 °F 7% 29.82 in 9.0 mi SSE 9.2 mph - N/A   Clear
1:56 PM 91.9 °F 15.1 °F 6% 29.79 in 10.0 mi ESE 8.1 mph - N/A   Clear
2:56 PM 93.0 °F 14.0 °F 5% 29.78 in 10.0 mi ESE 9.2 mph - N/A   Clear
3:56 PM 93.0 °F 12.0 °F 5% 29.77 in 10.0 mi Calm Calm - N/A   Clear
4:56 PM 95.0 °F 12.9 °F 5% 29.75 in 10.0 mi Variable 3.5 mph - N/A   Clear
5:56 PM 93.9 °F 12.9 °F 5% 29.75 in 10.0 mi SSW 4.6 mph - N/A   Clear
6:56 PM 90.0 °F 19.9 °F 8% 29.75 in 3.0 mi North 9.2 mph - N/A   Haze
7:39 PM 84.2 °F 19.4 °F 9% 29.90 in 2.5 mi North 9.2 mph - N/A   Haze
7:56 PM 81.0 °F 21.9 °F 11% 29.76 in 3.0 mi North 9.2 mph - N/A   Haze
8:56 PM 77.0 °F 21.9 °F 13% 29.78 in 5.0 mi WNW 5.8 mph - N/A   Haze
9:56 PM 75.0 °F 21.9 °F 14% 29.79 in 6.0 mi WNW 5.8 mph - N/A   Haze
10:56 PM 71.1 °F 21.0 °F 15% 29.81 in 6.0 mi West 4.6 mph - N/A   Haze
11:56 PM 61.0 °F 26.1 °F 26% 29.83 in 6.0 mi North 5.8 mph - N/A   Haze